アトラス彗星

478P/ATLAS (2024)

English version
Home page
Updated on May 13, 2024

---------------------------------------------------------------------

・ プロフィール

符号 478P/2023 Y3
発見日 2023年12月18日
発見光度 18.9等
発見者 Asteroid Terrestrial-Impact Last Alert System (ATLAS) search program

・ 写真集

・ 軌道要素

Epoch 2024 Mar. 31.0 TT = JDT 2460400.5
T 2024 May 1.96389 TT                                   Rudenko
q   2.3936079            (2000.0)            P               Q
n   0.14158883     Peri.   13.17777     -0.76674457     -0.61831968
a   3.6457206      Node   127.27160     +0.56756412     -0.77855457
e   0.3434473      Incl.   12.52523     +0.29995622     -0.10739440
P   6.96
>From 501 observations 2015 Sept. 18-2024 Mar. 6, mean residual 0".5.

・ 光度変化

        m1 = 6.5 + 5 logΔ + 25.0 log r

---------------------------------------------------------------------

軌道要素はM.P.E.C. 2024-F34に掲載されたものです。
光度グラフはComet for Windowsで作成したものです。

---------------------------------------------------------------------

Copyright(C) Seiichi Yoshida (comet@aerith.net). All rights reserved.